Regional Weather Roundup
Issued by NWS

Home | Current Version | Previous Version | Text Only | Print | Product List | Glossary Off
Versions: 1 2 3 4 5 6 7 8 9 10 11 12 13 14 15 16 17 18 19 20 21 22 23 24 25 26 27

000
ASUS45 KCYS 281710
RWRWY

WYOMING REGIONAL WEATHER ROUNDUP
NATIONAL WEATHER SERVICE CHEYENNE WY
1100 AM MDT WED JUN 28 2017

NOTE:  "FAIR" INDICATES FEW OR NO CLOUDS BELOW 12,000 FEET
WITH NO SIGNIFICANT WEATHER AND/OR OBSTRUCTIONS TO VISIBILITY.

WYZ001-281800-
YELLOWSTONE NATIONAL PARK

CITY           SKY/WX    TMP DP  RH WIND       PRES   REMARKS
LK YELLOWSTONE   N/A     54  43  66 VRB3      30.06F
W YELLOWSTONE  NOT AVBL

$$
WYZ002>013-054>058-071-098>099-281800-
NORTHERN WYOMING

CITY           SKY/WX    TMP DP  RH WIND       PRES   REMARKS
JACKSON        MOSUNNY   61  46  59 CALM      29.99F
CODY           FAIR      73  39  29 W9        29.86F
GREYBULL       FAIR      75  42  30 S9        29.80F
WORLAND          N/A     73  43  33 VRB3      29.81F
SHERIDAN       FAIR      78  48  34 SE14      29.78F
BUFFALO        FAIR      70  48  45 SE12      29.86F
GILLETTE       FAIR      72  51  47 S9        29.84F
NEWCASTLE      FAIR      72  45  37 W6G20     29.87S

$$
WYZ014>020-022>026-101>103-281800-
CENTRAL WYOMING

CITY           SKY/WX    TMP DP  RH WIND       PRES   REMARKS
BIG PINEY      FAIR      67  39  35 S7        30.02F
PINEDALE       FAIR      63  37  39 NW5       30.04F
DUBOIS         FAIR      63  34  34 NW13G23   29.99F
LANDER         FAIR      69  44  40 E8        29.92F
RIVERTON       FAIR      70  39  32 NW8G17    29.91F
CASPER         FAIR      76  37  24 W12G18    29.88F
DOUGLAS        FAIR      76  41  28 SE9       29.88F

$$
WYZ021-027>030-104>119-281800-
SOUTHERN WYOMING

CITY           SKY/WX    TMP DP  RH WIND       PRES   REMARKS
EVANSTON       FAIR      70  39  32 W10       30.05F
KEMMERER         N/A     68  34  28 W12       30.05F
FORT BRIDGER   FAIR      74  32  21 W8        30.06F
ROCK SPRINGS   FAIR      73  31  21 SW7       30.01F
DIXON          FAIR      76  33  21 S5        30.03F
RAWLINS        FAIR      75  32  20 W16G24    30.00F
SARATOGA       FAIR      73  32  21 W8G21     30.03S
LARAMIE        FAIR      74  24  15 W12       30.02F
CHEYENNE       FAIR      77  41  27 S15       29.96F
TORRINGTON     FAIR      77  39  25 VRB3      29.86F
PINE BLUFFS    FAIR      75  41  29 SW7       29.93F

$$




USA.gov is the U.S. government's official web portal to all federal, state and local government web resources and services.